Find Starlink 32782

NORAD ID: 62821 Int'l Des: 2025-018 Owner: SPXS Country: US Constellation: starlink operational
LEOCIRCULAR

現在のビュー

3D地球を読み込み中...

About Starlink 32782

Starlink 32782 (NORAD 62821) is a starlink constellation satellite (v2 mini) launched Jan 24, 2025 by SPXS of US. It operates in LEO, CIRCULAR orbit with a mass of 730.00 kg.

Starlink 32782について

説明を読み込み中...

次回通過

Passes for default location (London). Set your location on the main map for personalized predictions.

高度履歴

Loading altitude history...

軌道要素

1 62821U 25018R 26169.81925440 .00012201 00000-0 42348-3 0 9992
2 62821 53.1579 199.7249 0000970 84.4174 275.6937 15.30193356 78668
Epoch: Jun 18, 2026 • Age: 39 hours

現在のステータス

高度 476.5 km
速度 7.63 km/s
衛星直下点 30.63°N, 144.29°E
打ち上げ日 Jan 24, 2025
運用期間 1.3 years
タイプ internet

技術仕様

分類 Payload
質量 730.00 kg
乾燥質量 700.00 kg
総質量 730.00 kg
長さ 0.30 m
直径 4.10 m
スパン 29.00 m
形状 Box + pan
製造者 SPXS
バスタイプ Starlink V2M
フェーズステータス In Orbit
所有者/国 SPXS/US

Most Searched